This is the latest recevied weather packets stored in our database for station/object WE0DX-1. If no packets are shown the sender has not sent any weather packets the latest 10 day(s).
| Time | Temp. | Humidity | Pressure | Rain* | Wind** | Luminosity | Snow |
|---|---|---|---|---|---|---|---|
| 1777932166 | 27.78° C | 39% | 1001 hPa | 0 mm | - | 102 W/m² | - |
| 1777931863 | 27.78° C | 38% | 1001 hPa | 0 mm | - | 110 W/m² | - |
| 1777931560 | 27.78° C | 38% | 1001 hPa | 0 mm | - | 150 W/m² | - |
| 1777931256 | 27.78° C | 38% | 1001 hPa | 0 mm | - | 112 W/m² | - |
| 1777930952 | 27.78° C | 36% | 1000.9 hPa | 0 mm | - | 104 W/m² | - |
| 1777930649 | 27.78° C | 36% | 1001.1 hPa | 0 mm | - | 173 W/m² | - |
| 1777930346 | 27.78° C | 37% | 1000.9 hPa | 0 mm | - | 117 W/m² | - |
| 1777930043 | 28.33° C | 38% | 1001 hPa | 0 mm | - | 225 W/m² | - |
| 1777929739 | 27.78° C | 37% | 1001.1 hPa | 0 mm | - | 155 W/m² | - |
| 1777929437 | 27.78° C | 36% | 1001.2 hPa | 0 mm | - | 123 W/m² | - |
| 1777929133 | 27.78° C | 36% | 1001.2 hPa | 0 mm | - | 197 W/m² | - |
| 1777928830 | 27.78° C | 36% | 1001.2 hPa | 0 mm | - | 360 W/m² | - |
| 1777928527 | 28.33° C | 37% | 1001.2 hPa | 0 mm | - | 233 W/m² | - |
| 1777928224 | 28.89° C | 35% | 1001 hPa | 0 mm | - | 430 W/m² | - |
| 1777927921 | 28.33° C | 36% | 1001.1 hPa | 0 mm | - | 443 W/m² | - |
| 1777927620 | 28.33° C | 37% | 1001.3 hPa | 0 mm | - | 556 W/m² | - |
| 1777927319 | 28.33° C | 38% | 1001.3 hPa | 0 mm | - | 580 W/m² | - |
| 1777927017 | 28.33° C | 39% | 1001.5 hPa | 0 mm | - | 545 W/m² | - |
| 1777926714 | 28.33° C | 40% | 1001.4 hPa | 0 mm | - | 544 W/m² | - |
| 1777926408 | 28.33° C | 36% | 1001.5 hPa | 0 mm | - | 611 W/m² | - |
| 1777926106 | 28.33° C | 37% | 1001.6 hPa | 0 mm | - | 628 W/m² | - |
| 1777925803 | 28.33° C | 37% | 1001.6 hPa | 0 mm | - | 611 W/m² | - |
| 1777925501 | 28.33° C | 38% | 1001.5 hPa | 0 mm | - | 640 W/m² | - |
| 1777925197 | 27.78° C | 41% | 1001.5 hPa | 0 mm | - | 620 W/m² | - |
| 1777924894 | 28.33° C | 40% | 1001.7 hPa | 0 mm | - | 619 W/m² | - |
* Rain latest hour (hover to see other rain measurements)
** Current wind speed in m/s (hover to see current wind gust speed)